Dundee, United Kingdom

8:08 AM BST on September 20, 2017 (GMT +0100)
Dundee

Weather History for EGPN - January, 2014

Change the Weather History Date:

Wednesday, January 15, 2014

  Actual Average Record
Temperature  
Mean Temperature 44 °F -  
Max Temperature 46 °F 42 °F 51 °F (2005)
Min Temperature 42 °F 34 °F 28 °F (2012)
Degree Days  
Heating Degree Days 21    
Moisture  
Dew Point 44 °F    
Average Humidity 100    
Maximum Humidity 100    
Minimum Humidity 93    
Precipitation  
Precipitation 0.00 in - - ()
Sea Level Pressure  
Sea Level Pressure 29.17 in    
Wind  
Wind Speed 8 mph ()    
Max Wind Speed 13 mph    
Max Gust Speed -    
Visibility 4.8 miles    
Events Rain    
Averages and records for this station are not official NWS values.
T = Trace of Precipitation, MM = Missing Value Source: Averaged Metar Reports

Daily Weather History Graph

Daily Weather History Graph

Search for Another Location

Airport or City:

Trip Planner

Search our weather history database for the weather conditions in past years. The results will help you decide how hot, cold, wet, or windy it might be!

Date:

Astronomy

Jan. 15, 2014 Rise Set
Actual Time 8:35 AM GMT 4:07 PM GMT
Civil Twilight 7:50 AM GMT 4:52 PM GMT
Nautical Twilight 7:02 AM GMT 5:40 PM GMT
Astronomical Twilight 6:17 AM GMT 6:25 PM GMT
Moon 4:03 PM GMT (1/15) 7:33 AM GMT (1/15)
Length of Visible Light 9h 02m
Length of Day
7h 31m
Full, 100% of the Moon is Illuminated
Jan 15
Full
Jan 16
Full
Jan 24
Last Quarter
Jan 30
New
Feb 6
First Quarter

Hourly Weather History & Observations

Time (GMT) Temp. Windchill Dew Point Humidity Pressure Visibility Wind Dir Wind Speed Gust Speed Precip Events Conditions
7:50 AM 42.8 °F 37.0 °F 41.0 °F 93% 29.27 in 6.2 mi East 10.4 mph - N/A   Mostly Cloudy
8:20 AM 42.8 °F 36.6 °F 42.8 °F 100% 29.27 in 4.3 mi East 11.5 mph - N/A Rain Light Rain
8:50 AM 42.8 °F 37.5 °F 42.8 °F 100% 29.24 in 3.7 mi East 9.2 mph - N/A Rain Light Rain
9:20 AM 42.8 °F 37.5 °F 42.8 °F 100% 29.24 in 2.5 mi East 9.2 mph - N/A Rain Rain
9:50 AM 42.8 °F 37.5 °F 42.8 °F 100% 29.24 in 3.1 mi ENE 9.2 mph - N/A Rain Rain
10:20 AM 42.8 °F 38.0 °F 42.8 °F 100% 29.21 in 2.5 mi East 8.1 mph - N/A Rain Rain
10:50 AM 42.8 °F 37.0 °F 42.8 °F 100% 29.21 in 2.5 mi East 10.4 mph - N/A Rain Rain
11:20 AM 42.8 °F 38.0 °F 42.8 °F 100% 29.21 in 2.5 mi ENE 8.1 mph - N/A Rain Rain
11:50 AM 42.8 °F 38.6 °F 42.8 °F 100% 29.18 in 2.5 mi ENE 6.9 mph - N/A Rain Rain
12:20 PM 44.6 °F 41.4 °F 44.6 °F 100% 29.18 in 2.5 mi ENE 5.8 mph - N/A   Drizzle
12:50 PM 44.6 °F 41.4 °F 44.6 °F 100% 29.18 in 5.0 mi NE 5.8 mph - N/A   Mostly Cloudy
1:20 PM 44.6 °F 40.7 °F 44.6 °F 100% 29.15 in 5.0 mi NE 6.9 mph - N/A   Scattered Clouds
1:50 PM 44.6 °F 40.7 °F 44.6 °F 100% 29.15 in 4.3 mi ENE 6.9 mph - N/A   Mostly Cloudy
2:20 PM 44.6 °F 40.7 °F 44.6 °F 100% 29.15 in 5.6 mi East 6.9 mph - N/A   Mostly Cloudy
2:50 PM 46.4 °F 42.9 °F 46.4 °F 100% 29.15 in 5.6 mi ENE 6.9 mph - N/A   Mostly Cloudy
3:20 PM 46.4 °F 41.1 °F 46.4 °F 100% 29.15 in 5.6 mi East 11.5 mph - N/A   Mostly Cloudy
3:50 PM 46.4 °F 41.5 °F 46.4 °F 100% 29.15 in 5.6 mi ENE 10.4 mph - N/A   Mostly Cloudy
4:20 PM 46.4 °F 41.5 °F 46.4 °F 100% 29.12 in 5.6 mi ENE 10.4 mph - N/A   Mostly Cloudy
4:50 PM 46.4 °F 41.9 °F 46.4 °F 100% 29.12 in 5.0 mi ENE 9.2 mph - N/A   Mostly Cloudy
5:20 PM 46.4 °F 41.5 °F 46.4 °F 100% 29.12 in 6.2 mi ENE 10.4 mph - N/A   Mostly Cloudy
5:50 PM 46.4 °F 41.9 °F 46.4 °F 100% 29.12 in 6.2 mi ESE 9.2 mph - N/A   Mostly Cloudy
6:20 PM 46.4 °F 41.5 °F 46.4 °F 100% 29.12 in 6.2 mi SE 10.4 mph - N/A   Mostly Cloudy
6:50 PM 46.4 °F 40.7 °F 46.4 °F 100% 29.12 in 6.2 mi SE 12.7 mph - N/A Rain Rain Showers
7:20 PM 42.8 °F 38.6 °F 42.8 °F 100% 29.12 in 6.2 mi SSE 6.9 mph - N/A Rain Light Rain
7:50 PM 46.4 °F - 46.4 °F 100% 29.15 in 6.2 mi Calm Calm - N/A Rain Light Rain
8:20 PM 44.6 °F - 44.6 °F 100% 29.15 in 6.2 mi NE 1.2 mph - N/A Rain Light Rain
9:20 PM 42.8 °F 39.3 °F 42.8 °F 100% 29.15 in 6.2 mi ESE 5.8 mph - N/A   Scattered Clouds
9:50 PM 44.6 °F 41.4 °F 44.6 °F 100% 29.15 in 6.2 mi East 5.8 mph - N/A   Scattered Clouds